Weather Roundup
Issued by NWS Springfield, MO

Home | Current Version | Previous Version | Text Only | Print | Product List | Glossary On
Versions: 1 2 3 4 5 6 7 8 9 10 11 12 13 14 15 16 17 18 19 20 21 22 23 24 25 26 27 28 29 30 31 32 33 34 35 36 37 38 39 40 41 42 43 44 45 46 47 48 49 50
000
NZUS99 KSGF 290057
HRRSGF

HOURLY WEATHER
NATIONAL WEATHER SERVICE SPRINGFIELD MO
800 PM CDT SUN AUG 28 2016

......SGF CWA......

CITY           SKY/WX    TMP DP  RH WIND       PRES   REMARKS
SPRINGFIELD    CLEAR     83  67  58 SE8       30.09R
JOPLIN         CLEAR     83  68  60 CALM      30.07R
WEST PLAINS    CLEAR     80  71  74 CALM      30.13R
BRANSON        MOCLDY    79  73  83 CALM      30.10R

......SURROUNDING SGF CWA......

CITY           SKY/WX    TMP DP  RH WIND       PRES   REMARKS
CHANUTE        PTCLDY    80  67  64 NE7       30.06S
PARSONS        PTCLDY    81  72  74 CALM      30.06R
COFFEYVILLE    MOCLDY    85  67  54 E6        30.04R
EMPORIA        PTCLDY    74  68  81 SE6       30.06F
HARRISON AR    CLEAR     80  71  74 E5        30.10R

......KANSAS AND MISSOURI......

CITY           SKY/WX    TMP DP  RH WIND       PRES   REMARKS
KANSAS CTY INT TSTM      84  71  65 E8        30.08R
SEDALIA        CLOUDY    79  73  82 NE5       30.11R
ST JOSEPH      CLEAR     73  69  87 N7        30.10R
ST LOUIS       PTCLDY    88  70  55 E7        30.10R HX  93
WICHITA        CLOUDY    77  67  71 CALM      30.07R
TOPEKA         MOCLDY    80  74  81 N3        30.08R
OLATHE         CLOUDY    79  69  71 SE6       30.09R

......TENNESSEE......

CITY           SKY/WX    TMP DP  RH WIND       PRES   REMARKS
MEMPHIS        NOT AVBL
NASHVILLE      PTCLDY    81  72  74 E3        30.11R

......ARKANSAS.......

CITY           SKY/WX    TMP DP  RH WIND       PRES   REMARKS
FAYETTEVILLE   CLEAR     76  72  87 CALM      30.09R
FT SMITH       MOCLDY    80  67  64 CALM      30.03S
LITTLE ROCK    PTCLDY    85  74  69 E6        30.02R HX  92

......OKLAHOMA.......

CITY           SKY/WX    TMP DP  RH WIND       PRES   REMARKS
TULSA          PTCLDY    87  68  52 SE7       30.03R HX  90
PONCA CITY     CLOUDY    80  71  74 NE5       30.05R
MCALESTER      CLOUDY    83  68  60 VRB3      30.04R
OKLAHOMA CITY  PTCLDY    87  62  43 SE12      30.03R

......IOWA............

CITY           SKY/WX    TMP DP  RH WIND       PRES   REMARKS
DES MOINES     NOT AVBL
QUAD CITIES    CLOUDY    74  68  81 CALM      30.16S

......ILLINOIS........

CITY           SKY/WX    TMP DP  RH WIND       PRES   REMARKS
QUINCY         NOT AVBL
CHICAGO        CLOUDY    74  68  81 E7        30.17S




USA.gov is the U.S. government's official web portal to all federal, state and local government web resources and services.